World > North America > United States > Texas

Hidalgo, Texas Regional Weather

Lat: 26.10N, Lon: 98.26W
Wx Zone: TXZ253Web Search
Hidalgo Weather Warning NWS WEATHER ALERT FOR THE HIDALGO, TX AREA - Issued: 352 AM CDT Fri Apr 16 2021 Hidalgo Weather Warning  

Ads allow us to feed your daily addiction for the world's greatest weather information. We're determined to offer quality sponsors, in the least annoying way possible.

Feedback


°F Click to change Hidalgo hourly weather to Imperial units.Click to change Hidalgo hourly weather to Metric units. °C
Hidalgo Weather Map
UTC Time: 4/16/2021, 17:55
Your Time:

Hidalgo, TX Regional Weather

Expires:202104161800;;647944
ASUS44 KSJT 161715
RWRSJT
WEST CENTRAL TEXAS REGIONAL WEATHER ROUNDUP
NATIONAL WEATHER SERVICE SAN ANGELO TX
1200 PM CDT FRI APR 16 2021

NOTE: "FAIR" INDICATES FEW OR NO CLOUDS BELOW 12,000 FEET WITH NO
SIGNIFICANT WEATHER AND/OR OBSTRUCTIONS TO VISIBILITY.


TXZ229-232-234-239-242-243-245-247-249-250-
253-255-257-343-347-443-161800-
TEXAS COASTAL BEND, RIO GRANDE PLAINS DEEP SOUTH TEXAS
  
CITY           SKY/WX    TMP DP  RH WIND       PRES   REMARKS
VICTORIA       FOG       70  69  97 E6        29.75F VSB 1            
BEEVILLE       CLOUDY    78  78  99 SE5       29.73F FOG              
ROCKPORT       PTSUNNY   82  74  76 SE16      29.72F HAZE             
PORT ARANSAS   CLOUDY    76  73  91 SE9       29.75F FOG              
PORT LAVACA    CLOUDY    76  72  86 E10       29.75F FOG              
CORPUS CHRISTI CLOUDY    81  75  82 SE13      29.72F                  
KINGSVILLE NAS CLOUDY    83  72  69 S13       29.70F                  
COTULLA        CLOUDY    76  70  82 E6        29.73                   
LAREDO         CLOUDY    84  73  69 CALM      29.71F                  
BROWNSVILLE    CLOUDY    87  71  58 S16       29.71F                  
PORT ISABEL    PTSUNNY   84  73  69 SE16      29.71F                  
HEBBRONVILLE   MOSUNNY   84  64  50 S10       29.73S                  
MCALLEN        CLOUDY    79  74  84 SE6       29.71F HAZE             
WESLACO        NOT AVBL                                               
FALFURRIAS     CLOUDY    78  72  81 S8        29.70F            

SKY/WX - Weather  TMP - Temperature  DP - Dew Point  RH - Relative Humidity
WIND - Wind Direction/Speed PRES - Barometric Pressure VSB - Visibility
WCI - Wind Chill Index E13G22 Wind - East Wind 13 mph/Gusts of 22 mph